User: anonymous   Login
Location: Unspecified
(0.0000°N, 0.0000°E)
Time: 00:57:53
(UTC+00:00)
Language:

STARLINK-31074 - Orbit

View from above orbital plane
View from above orbital plane
View from above satellite
View from above satellite

Ground track
Ground track

The orbit is defined by the following mean orbital elements,

1 58601U          26145.25859860 +.00000000 +00000-0 +13844-5 0 00009
2 58601  43.0037  96.2096 0001759 293.7042  66.3625 15.27566360    09
Epoch (UTC): 25 May 2026 06:12:22
Eccentricity: 0.0001759
inclination: 43.0037°
perigee height: 482 km
apogee height: 484 km
right ascension of ascending node: 96.2096°
argument of perigee: 293.7042°
revolutions per day: 15.27566360
mean anomaly at epoch: 66.3625°

The dashed part of the orbit path shows where the satellite is in the earth's shadow,  

DLR